Weather History for Alexandria Esle, LA

Change the Weather History Date:

Saturday, May 3, 2014

  Actual Average Record
Temperature  
Mean Temperature 67 °F -  
Max Temperature 87 °F 78 °F 90 °F (2012)
Min Temperature 48 °F 59 °F 43 °F (2013)
Cooling Degree Days 2    
Growing Degree Days 17 (Base 50)    
Moisture  
Dew Point 49 °F    
Average Humidity 61    
Maximum Humidity 93    
Minimum Humidity 21    
Precipitation  
Precipitation 0.00 in - - ()
Sea Level Pressure  
Sea Level Pressure 30.04 in    
Wind  
Wind Speed 2 mph (WSW)    
Max Wind Speed 10 mph    
Max Gust Speed -    
Visibility 10 miles    
Events      
Averages and records for this station are not official NWS values.
T = Trace of Precipitation, MM = Missing Value Source: NWS Daily Summary

Daily Weather History Graph

Daily Weather History Graph

Search for Another Location

Airport:

Trip Planner

Search our weather history database for the weather conditions in past years. The results will help you decide how hot, cold, wet, or windy it might be!

Date:

Astronomy

May. 03, 2014 Rise Set
Actual Time 6:22 AM CDT 7:50 PM CDT
Civil Twilight 5:56 AM CDT 8:16 PM CDT
Nautical Twilight 5:25 AM CDT 8:47 PM CDT
Astronomical Twilight 4:53 AM CDT 9:19 PM CDT
Moon 9:55 AM CDT (5/3) 11:54 PM CDT (5/3)
Length of Visible Light 14h 19m
Length of Day
13h 27m
Waxing Crescent, 20% of the Moon is Illuminated
May 3
Waxing Crescent
May 6
First Quarter
May 14
Full
May 21
Last Quarter
May 28
New

Hourly Weather History & Observations

Time (CDT) Temp. Heat Index Dew Point Humidity Pressure Visibility Wind Dir Wind Speed Gust Speed Precip Events Conditions
12:53 AM 52.0 °F - 48.9 °F 89% 30.01 in 10.0 mi Calm Calm - N/A   Clear
1:53 AM 52.0 °F - 48.9 °F 89% 30.01 in 10.0 mi Calm Calm - N/A   Clear
2:53 AM 50.0 °F - 46.9 °F 89% 30.01 in 10.0 mi Calm Calm - N/A   Clear
3:53 AM 48.9 °F - 46.0 °F 90% 30.01 in 10.0 mi Calm Calm - N/A   Clear
4:53 AM 48.9 °F - 46.0 °F 90% 30.01 in 10.0 mi Calm Calm - N/A   Clear
5:53 AM 48.0 °F - 45.0 °F 89% 30.03 in 10.0 mi Calm Calm - N/A   Clear
6:53 AM 48.0 °F - 46.0 °F 93% 30.04 in 10.0 mi Calm Calm - N/A   Clear
7:53 AM 57.0 °F - 51.1 °F 81% 30.05 in 10.0 mi Calm Calm - N/A   Clear
8:53 AM 66.0 °F - 52.0 °F 60% 30.06 in 10.0 mi West 5.8 mph - N/A   Clear
9:53 AM 73.9 °F - 50.0 °F 43% 30.06 in 10.0 mi West 9.2 mph - N/A   Clear
10:53 AM 77.0 °F - 48.0 °F 36% 30.06 in 10.0 mi WSW 10.4 mph - N/A   Clear
11:53 AM 79.0 °F - 46.9 °F 32% 30.06 in 10.0 mi Variable 3.5 mph - N/A   Clear
12:53 PM 82.9 °F - 46.9 °F 28% 30.05 in 10.0 mi WNW 6.9 mph - N/A   Clear
1:53 PM 86.0 °F - 45.0 °F 24% 30.04 in 10.0 mi Calm Calm - N/A   Clear
2:53 PM 84.2 °F - 44.6 °F 25% 30.02 in 10.0 mi Variable 4.6 mph - N/A   Clear
3:53 PM 86.0 °F - 42.1 °F 21% 30.01 in 10.0 mi Variable 5.8 mph - N/A   Clear
4:53 PM 86.0 °F - 46.0 °F 25% 30.01 in 10.0 mi SSW 6.9 mph - N/A   Clear
5:53 PM 86.0 °F - 44.1 °F 23% 30.00 in 10.0 mi Calm Calm - N/A   Clear
6:53 PM 80.1 °F 80.2 °F 55.9 °F 43% 30.01 in 10.0 mi Calm Calm - N/A   Clear
7:53 PM 70.0 °F - 57.0 °F 63% 30.03 in 10.0 mi Calm Calm - N/A   Clear
8:53 PM 64.0 °F - 55.0 °F 73% 30.04 in 10.0 mi Calm Calm - N/A   Clear
9:53 PM 61.0 °F - 55.0 °F 81% 30.06 in 10.0 mi Calm Calm - N/A   Clear
10:53 PM 60.1 °F - 55.0 °F 83% 30.08 in 10.0 mi Calm Calm - N/A   Clear
11:53 PM 59.0 °F - 55.0 °F 87% 30.09 in 10.0 mi Calm Calm - N/A   Clear